User: anonymous   Login
Location: Caltech
(34.1382°N, 118.1253°W)
Time: 20:04:36
(UTC-08:00)
Language:

Cosmos 1626 - Orbit

View from above orbital plane
View from above orbital plane
View from above satellite
View from above satellite

Ground track
Ground track

The orbit data is extracted from the following two-line orbital elements,

1 15494U 85009A   15062.55401197  .00008113  00000-0  39658-3 0  9998
2 15494 082.4836 004.5652 0004832 088.5735 031.5361 15.18080610641629
Epoch (UTC): 03 March 2015 13:17:46
Eccentricity: 0.0004832
inclination: 82.4836°
perigee height: 508 km
apogee height: 515 km
right ascension of ascending node: 4.5652°
argument of perigee: 88.5735°
revolutions per day: 15.18080610
mean anomaly at epoch: 31.5361°
orbit number at epoch: 64162

The dashed part of the orbit path shows where the satellite is in the earth's shadow,  

DLR